Year,Month,Day,Hour,Minute,Value (Times are PST for temperature in C)
2006,08,23,00,00,13.70
2006,08,23,00,01,13.70
2006,08,23,00,02,13.70
2006,08,23,00,03,13.70
2006,08,23,00,04,13.70
2006,08,23,00,05,13.70
2006,08,23,00,06,13.70
2006,08,23,00,07,13.70
2006,08,23,00,08,13.70
2006,08,23,00,09,13.70
2006,08,23,00,10,13.60
2006,08,23,00,11,13.60
2006,08,23,00,12,13.60
2006,08,23,00,13,13.60
2006,08,23,00,14,13.60
2006,08,23,00,15,13.60
2006,08,23,00,16,13.60
2006,08,23,00,17,13.60
2006,08,23,00,18,13.60
2006,08,23,00,19,13.60
2006,08,23,00,20,13.50
2006,08,23,00,21,13.50
2006,08,23,00,22,13.50
2006,08,23,00,23,13.50
2006,08,23,00,24,13.50
2006,08,23,00,25,13.50
2006,08,23,00,26,13.50
2006,08,23,00,27,13.50
2006,08,23,00,28,13.50
2006,08,23,00,29,13.40
2006,08,23,00,30,13.40
2006,08,23,00,31,13.40
2006,08,23,00,32,13.30
2006,08,23,00,33,13.30
2006,08,23,00,34,13.30
2006,08,23,00,35,13.30
2006,08,23,00,36,13.30
2006,08,23,00,37,13.30
2006,08,23,00,38,13.30
2006,08,23,00,39,13.20
2006,08,23,00,40,13.20
2006,08,23,00,41,13.20
2006,08,23,00,42,13.20
2006,08,23,00,43,13.10
2006,08,23,00,44,13.10
2006,08,23,00,45,13.10
2006,08,23,00,46,13.10
2006,08,23,00,47,13.10
2006,08,23,00,48,13.00
2006,08,23,00,49,13.00
2006,08,23,00,50,13.00
2006,08,23,00,51,13.00
2006,08,23,00,52,13.00
2006,08,23,00,53,13.00
2006,08,23,00,54,12.90
2006,08,23,00,55,12.90
2006,08,23,00,56,12.90
2006,08,23,00,57,12.90
2006,08,23,00,58,12.90
2006,08,23,00,59,13.00
2006,08,23,01,00,13.00
2006,08,23,01,01,13.00
2006,08,23,01,02,13.00
2006,08,23,01,03,13.10
2006,08,23,01,04,13.10
2006,08,23,01,05,13.10
2006,08,23,01,06,13.10
2006,08,23,01,07,13.10
2006,08,23,01,08,13.10
2006,08,23,01,09,13.10
2006,08,23,01,10,13.10
2006,08,23,01,11,13.10
2006,08,23,01,12,13.10
2006,08,23,01,13,13.10
2006,08,23,01,14,13.10
2006,08,23,01,15,13.10
2006,08,23,01,16,13.10
2006,08,23,01,17,13.10
2006,08,23,01,18,13.00
2006,08,23,01,19,13.00
2006,08,23,01,20,13.00
2006,08,23,01,21,13.00
2006,08,23,01,22,13.00
2006,08,23,01,23,13.00
2006,08,23,01,24,13.00
2006,08,23,01,25,13.00
2006,08,23,01,26,13.00
2006,08,23,01,27,13.00
2006,08,23,01,28,13.00
2006,08,23,01,29,12.90
2006,08,23,01,30,12.90
2006,08,23,01,31,12.90
2006,08,23,01,32,12.90
2006,08,23,01,33,12.90
2006,08,23,01,34,12.90
2006,08,23,01,35,12.90
2006,08,23,01,36,12.90
2006,08,23,01,37,12.90
2006,08,23,01,38,12.90
2006,08,23,01,39,12.90
2006,08,23,01,40,12.90
2006,08,23,01,41,12.80
2006,08,23,01,42,12.80
2006,08,23,01,43,12.80
2006,08,23,01,44,12.80
2006,08,23,01,45,12.80
2006,08,23,01,46,12.80
2006,08,23,01,47,12.80
2006,08,23,01,48,12.80
2006,08,23,01,49,12.80
2006,08,23,01,50,12.80
2006,08,23,01,51,12.80
2006,08,23,01,52,12.80
2006,08,23,01,53,12.80
2006,08,23,01,54,12.80
2006,08,23,01,55,12.80
2006,08,23,01,56,12.80
2006,08,23,01,57,12.70
2006,08,23,01,58,12.70
2006,08,23,01,59,12.70
2006,08,23,02,00,12.70
2006,08,23,02,01,12.70
2006,08,23,02,02,12.70
2006,08,23,02,03,12.60
2006,08,23,02,04,12.60
2006,08,23,02,05,12.60
2006,08,23,02,06,12.60
2006,08,23,02,07,12.60
2006,08,23,02,08,12.50
2006,08,23,02,09,12.50
2006,08,23,02,10,12.50
2006,08,23,02,11,12.50
2006,08,23,02,12,12.50
2006,08,23,02,13,12.50
2006,08,23,02,14,12.50
2006,08,23,02,15,12.50
2006,08,23,02,16,12.40
2006,08,23,02,17,12.40
2006,08,23,02,18,12.40
2006,08,23,02,19,12.40
2006,08,23,02,20,12.40
2006,08,23,02,21,12.40
2006,08,23,02,22,12.40
2006,08,23,02,23,12.40
2006,08,23,02,24,12.40
2006,08,23,02,25,12.40
2006,08,23,02,26,12.40
2006,08,23,02,27,12.40
2006,08,23,02,28,12.50
2006,08,23,02,29,12.50
2006,08,23,02,30,12.50
2006,08,23,02,31,12.50
2006,08,23,02,32,12.60
2006,08,23,02,33,12.60
2006,08,23,02,34,12.70
2006,08,23,02,35,12.70
2006,08,23,02,36,12.70
2006,08,23,02,37,12.80
2006,08,23,02,38,12.80
2006,08,23,02,39,12.80
2006,08,23,02,40,12.80
2006,08,23,02,41,12.80
2006,08,23,02,42,12.80
2006,08,23,02,43,12.80
2006,08,23,02,44,12.80
2006,08,23,02,45,12.80
2006,08,23,02,46,12.80
2006,08,23,02,47,12.80
2006,08,23,02,48,12.80
2006,08,23,02,49,12.80
2006,08,23,02,50,12.80
2006,08,23,02,51,12.80
2006,08,23,02,52,12.80
2006,08,23,02,53,12.80
2006,08,23,02,54,12.80
2006,08,23,02,55,12.80
2006,08,23,02,56,12.80
2006,08,23,02,57,12.80
2006,08,23,02,58,12.80
2006,08,23,02,59,12.80
2006,08,23,03,00,12.80
2006,08,23,03,01,12.80
2006,08,23,03,02,12.80
2006,08,23,03,03,12.80
2006,08,23,03,04,12.80
2006,08,23,03,05,12.80
2006,08,23,03,06,12.80
2006,08,23,03,07,12.70
2006,08,23,03,08,12.70
2006,08,23,03,09,12.70
2006,08,23,03,10,12.70
2006,08,23,03,11,12.70
2006,08,23,03,12,12.70
2006,08,23,03,13,12.50
2006,08,23,03,14,12.50
2006,08,23,03,15,12.50
2006,08,23,03,16,12.50
2006,08,23,03,17,12.40
2006,08,23,03,18,12.40
2006,08,23,03,19,12.40
2006,08,23,03,20,12.30
2006,08,23,03,21,12.30
2006,08,23,03,22,12.30
2006,08,23,03,23,12.30
2006,08,23,03,24,12.30
2006,08,23,03,25,12.20
2006,08,23,03,26,12.20
2006,08,23,03,27,12.20
2006,08,23,03,28,12.20
2006,08,23,03,29,12.10
2006,08,23,03,30,12.10
2006,08,23,03,31,12.10
2006,08,23,03,32,12.10
2006,08,23,03,33,12.10
2006,08,23,03,34,12.10
2006,08,23,03,35,12.00
2006,08,23,03,36,12.00
2006,08,23,03,37,12.00
2006,08,23,03,38,12.00
2006,08,23,03,39,12.00
2006,08,23,03,40,12.00
2006,08,23,03,41,12.00
2006,08,23,03,42,12.00
2006,08,23,03,43,12.00
2006,08,23,03,44,11.90
2006,08,23,03,45,11.90
2006,08,23,03,46,11.90
2006,08,23,03,47,11.90
2006,08,23,03,48,11.90
2006,08,23,03,49,11.80
2006,08,23,03,50,11.80
2006,08,23,03,51,11.80
2006,08,23,03,52,11.80
2006,08,23,03,53,11.80
2006,08,23,03,54,11.80
2006,08,23,03,55,11.80
2006,08,23,03,56,11.80
2006,08,23,03,57,11.80
2006,08,23,03,58,11.80
2006,08,23,03,59,11.70
2006,08,23,04,00,11.70
2006,08,23,04,01,11.70
2006,08,23,04,02,11.70
2006,08,23,04,03,11.70
2006,08,23,04,04,11.70
2006,08,23,04,05,11.70
2006,08,23,04,06,11.70
2006,08,23,04,07,11.70
2006,08,23,04,08,11.60
2006,08,23,04,09,11.60
2006,08,23,04,10,11.60
2006,08,23,04,11,11.60
2006,08,23,04,12,11.60
2006,08,23,04,13,11.60
2006,08,23,04,14,11.60
2006,08,23,04,15,11.60
2006,08,23,04,16,11.60
2006,08,23,04,17,11.60
2006,08,23,04,18,11.60
2006,08,23,04,19,11.60
2006,08,23,04,20,11.60
2006,08,23,04,21,11.50
2006,08,23,04,22,11.40
2006,08,23,04,23,11.40
2006,08,23,04,24,11.40
2006,08,23,04,25,11.40
2006,08,23,04,26,11.40
2006,08,23,04,27,11.40
2006,08,23,04,28,11.40
2006,08,23,04,29,11.40
2006,08,23,04,30,11.40
2006,08,23,04,31,11.30
2006,08,23,04,32,11.30
2006,08,23,04,33,11.30
2006,08,23,04,34,11.30
2006,08,23,04,35,11.30
2006,08,23,04,36,11.30
2006,08,23,04,37,11.30
2006,08,23,04,38,11.30
2006,08,23,04,39,11.30
2006,08,23,04,40,11.20
2006,08,23,04,41,11.20
2006,08,23,04,42,11.20
2006,08,23,04,43,11.20
2006,08,23,04,44,11.20
2006,08,23,04,45,11.20
2006,08,23,04,46,11.20
2006,08,23,04,47,11.20
2006,08,23,04,48,11.20
2006,08,23,04,49,11.20
2006,08,23,04,50,11.20
2006,08,23,04,51,11.10
2006,08,23,04,52,11.10
2006,08,23,04,53,11.10
2006,08,23,04,54,11.10
2006,08,23,04,55,11.10
2006,08,23,04,56,11.10
2006,08,23,04,57,11.10
2006,08,23,04,58,11.10
2006,08,23,04,59,11.10
2006,08,23,05,00,11.10
2006,08,23,05,01,11.10
2006,08,23,05,02,11.10
2006,08,23,05,03,11.10
2006,08,23,05,04,11.10
2006,08,23,05,05,11.10
2006,08,23,05,06,11.10
2006,08,23,05,07,11.10
2006,08,23,05,08,11.10
2006,08,23,05,09,11.10
2006,08,23,05,10,11.00
2006,08,23,05,11,11.00
2006,08,23,05,12,11.10
2006,08,23,05,13,11.10
2006,08,23,05,14,11.10
2006,08,23,05,15,11.10
2006,08,23,05,16,11.10
2006,08,23,05,17,11.10
2006,08,23,05,18,11.10
2006,08,23,05,19,11.10
2006,08,23,05,20,11.10
2006,08,23,05,21,11.10
2006,08,23,05,22,11.10
2006,08,23,05,23,11.10
2006,08,23,05,24,11.10
2006,08,23,05,25,11.10
2006,08,23,05,26,11.10
2006,08,23,05,27,11.10
2006,08,23,05,28,11.10
2006,08,23,05,29,11.10
2006,08,23,05,30,11.10
2006,08,23,05,31,11.10
2006,08,23,05,32,11.10
2006,08,23,05,33,11.10
2006,08,23,05,34,11.10
2006,08,23,05,35,11.10
2006,08,23,05,36,11.10
2006,08,23,05,37,11.10
2006,08,23,05,38,11.10
2006,08,23,05,39,11.00
2006,08,23,05,40,10.90
2006,08,23,05,41,10.90
2006,08,23,05,42,10.90
2006,08,23,05,43,10.90
2006,08,23,05,44,10.90
2006,08,23,05,45,10.90
2006,08,23,05,46,10.90
2006,08,23,05,47,10.90
2006,08,23,05,48,10.90
2006,08,23,05,49,10.90
2006,08,23,05,50,10.90
2006,08,23,05,51,10.90
2006,08,23,05,52,10.90
2006,08,23,05,53,10.90
2006,08,23,05,54,11.00
2006,08,23,05,55,11.10
2006,08,23,05,56,11.10
2006,08,23,05,57,11.10
2006,08,23,05,58,11.10
2006,08,23,05,59,11.10
2006,08,23,06,00,11.10
2006,08,23,06,01,11.10
2006,08,23,06,02,11.10
2006,08,23,06,03,11.10
2006,08,23,06,04,11.10
2006,08,23,06,05,11.10
2006,08,23,06,06,11.10
2006,08,23,06,07,11.10
2006,08,23,06,08,11.10
2006,08,23,06,09,11.00
2006,08,23,06,10,10.90
2006,08,23,06,11,10.90
2006,08,23,06,12,10.90
2006,08,23,06,13,10.90
2006,08,23,06,14,10.90
2006,08,23,06,15,10.90
2006,08,23,06,16,10.90
2006,08,23,06,17,10.90
2006,08,23,06,18,10.90
2006,08,23,06,19,10.90
2006,08,23,06,20,10.90
2006,08,23,06,21,10.90
2006,08,23,06,22,10.90
2006,08,23,06,23,11.00
2006,08,23,06,24,10.90
2006,08,23,06,25,10.90
2006,08,23,06,26,10.90
2006,08,23,06,27,10.90
2006,08,23,06,28,10.90
2006,08,23,06,29,10.90
2006,08,23,06,30,10.90
2006,08,23,06,31,10.90
2006,08,23,06,32,10.90
2006,08,23,06,33,10.90
2006,08,23,06,34,10.90
2006,08,23,06,35,10.90
2006,08,23,06,36,10.90
2006,08,23,06,37,10.90
2006,08,23,06,38,10.90
2006,08,23,06,39,10.90
2006,08,23,06,40,10.90
2006,08,23,06,41,10.90
2006,08,23,06,42,10.90
2006,08,23,06,43,10.90
2006,08,23,06,44,10.90
2006,08,23,06,45,10.90
2006,08,23,06,46,10.90
2006,08,23,06,47,10.90
2006,08,23,06,48,10.90
2006,08,23,06,49,10.90
2006,08,23,06,50,10.90
2006,08,23,06,51,10.90
2006,08,23,06,52,11.00
2006,08,23,06,53,11.10
2006,08,23,06,54,11.10
2006,08,23,06,55,11.10
2006,08,23,06,56,11.10
2006,08,23,06,57,11.10
2006,08,23,06,58,11.00
2006,08,23,06,59,11.00
2006,08,23,07,00,10.90
2006,08,23,07,01,10.90
2006,08,23,07,02,10.90
2006,08,23,07,03,10.90
2006,08,23,07,04,11.10
2006,08,23,07,05,11.10
2006,08,23,07,06,11.10
2006,08,23,07,07,11.10
2006,08,23,07,08,11.10
2006,08,23,07,09,11.10
2006,08,23,07,10,11.10
2006,08,23,07,11,11.10
2006,08,23,07,12,11.10
2006,08,23,07,13,11.10
2006,08,23,07,14,11.20
2006,08,23,07,15,11.20
2006,08,23,07,16,11.20
2006,08,23,07,17,11.20
2006,08,23,07,18,11.30
2006,08,23,07,19,11.30
2006,08,23,07,20,11.40
2006,08,23,07,21,11.40
2006,08,23,07,22,11.50
2006,08,23,07,23,11.60
2006,08,23,07,24,11.60
2006,08,23,07,25,11.60
2006,08,23,07,26,11.60
2006,08,23,07,27,11.60
2006,08,23,07,28,11.60
2006,08,23,07,29,11.60
2006,08,23,07,30,11.70
2006,08,23,07,31,11.80
2006,08,23,07,32,11.80
2006,08,23,07,33,11.80
2006,08,23,07,34,11.90
2006,08,23,07,35,12.00
2006,08,23,07,36,12.10
2006,08,23,07,37,12.20
2006,08,23,07,38,12.30
2006,08,23,07,39,12.40
2006,08,23,07,40,12.50
2006,08,23,07,41,12.60
2006,08,23,07,42,12.70
2006,08,23,07,43,12.80
2006,08,23,07,44,12.80
2006,08,23,07,45,12.90
2006,08,23,07,46,13.00
2006,08,23,07,47,13.00
2006,08,23,07,48,13.10
2006,08,23,07,49,13.20
2006,08,23,07,50,13.30
2006,08,23,07,51,13.30
2006,08,23,07,52,13.40
2006,08,23,07,53,13.50
2006,08,23,07,54,13.60
2006,08,23,07,55,13.70
2006,08,23,07,56,13.70
2006,08,23,07,57,13.80
2006,08,23,07,58,13.80
2006,08,23,07,59,13.90
2006,08,23,08,00,14.00
2006,08,23,08,01,14.00
2006,08,23,08,02,14.20
2006,08,23,08,03,14.20
2006,08,23,08,04,14.30
2006,08,23,08,05,14.40
2006,08,23,08,06,14.50
2006,08,23,08,07,14.50
2006,08,23,08,08,14.60
2006,08,23,08,09,14.70
2006,08,23,08,10,14.80
2006,08,23,08,11,14.80
2006,08,23,08,12,14.80
2006,08,23,08,13,14.90
2006,08,23,08,14,14.90
2006,08,23,08,15,14.90
2006,08,23,08,16,15.00
2006,08,23,08,17,15.00
2006,08,23,08,18,15.10
2006,08,23,08,19,15.10
2006,08,23,08,20,15.10
2006,08,23,08,21,15.20
2006,08,23,08,22,15.20
2006,08,23,08,23,15.30
2006,08,23,08,24,15.30
2006,08,23,08,25,15.40
2006,08,23,08,26,15.50
2006,08,23,08,27,15.60
2006,08,23,08,28,15.70
2006,08,23,08,29,15.80
2006,08,23,08,30,15.90
2006,08,23,08,31,16.00
2006,08,23,08,32,16.10
2006,08,23,08,33,16.10
2006,08,23,08,34,16.10
2006,08,23,08,35,16.10
2006,08,23,08,36,16.10
2006,08,23,08,37,16.10
2006,08,23,08,38,16.10
2006,08,23,08,39,16.10
2006,08,23,08,40,16.10
2006,08,23,08,41,16.10
2006,08,23,08,42,16.10
2006,08,23,08,43,16.10
2006,08,23,08,44,16.10
2006,08,23,08,45,16.10
2006,08,23,08,46,16.10
2006,08,23,08,47,16.20
2006,08,23,08,48,16.20
2006,08,23,08,49,16.20
2006,08,23,08,50,16.20
2006,08,23,08,51,16.30
2006,08,23,08,52,16.30
2006,08,23,08,53,16.30
2006,08,23,08,54,16.30
2006,08,23,08,55,16.40
2006,08,23,08,56,16.40
2006,08,23,08,57,16.50
2006,08,23,08,58,16.60
2006,08,23,08,59,16.70
2006,08,23,09,00,16.70
2006,08,23,09,01,16.70
2006,08,23,09,02,16.70
2006,08,23,09,03,16.70
2006,08,23,09,04,16.70
2006,08,23,09,05,16.80
2006,08,23,09,06,16.90
2006,08,23,09,07,16.90
2006,08,23,09,08,17.00
2006,08,23,09,09,17.10
2006,08,23,09,10,17.20
2006,08,23,09,11,17.30
2006,08,23,09,12,17.30
2006,08,23,09,13,17.30
2006,08,23,09,14,17.30
2006,08,23,09,15,17.30
2006,08,23,09,16,17.30
2006,08,23,09,17,17.30
2006,08,23,09,18,17.30
2006,08,23,09,19,17.30
2006,08,23,09,20,17.30
2006,08,23,09,21,17.30
2006,08,23,09,22,17.40
2006,08,23,09,23,17.50
2006,08,23,09,24,17.60
2006,08,23,09,25,17.60
2006,08,23,09,26,17.70
2006,08,23,09,27,17.70
2006,08,23,09,28,17.70
2006,08,23,09,29,17.70
2006,08,23,09,30,17.80
2006,08,23,09,31,17.80
2006,08,23,09,32,17.80
2006,08,23,09,33,17.70
2006,08,23,09,34,17.70
2006,08,23,09,35,17.60
2006,08,23,09,36,17.60
2006,08,23,09,37,17.50
2006,08,23,09,38,17.50
2006,08,23,09,39,17.40
2006,08,23,09,40,17.40
2006,08,23,09,41,17.50
2006,08,23,09,42,17.50
2006,08,23,09,43,17.60
2006,08,23,09,44,17.70
2006,08,23,09,45,17.70
2006,08,23,09,46,17.80
2006,08,23,09,47,17.80
2006,08,23,09,48,17.80
2006,08,23,09,49,17.80
2006,08,23,09,50,17.80
2006,08,23,09,51,17.80
2006,08,23,09,52,17.80
2006,08,23,09,53,17.90
2006,08,23,09,54,18.10
2006,08,23,09,55,18.20
2006,08,23,09,56,18.40
2006,08,23,09,57,18.60
2006,08,23,09,58,18.70
2006,08,23,09,59,18.80
2006,08,23,10,00,18.90
2006,08,23,10,01,19.00
2006,08,23,10,02,19.10
2006,08,23,10,03,19.20
2006,08,23,10,04,19.30
2006,08,23,10,05,19.40
2006,08,23,10,06,19.50
2006,08,23,10,07,19.60
2006,08,23,10,08,19.70
2006,08,23,10,09,19.70
2006,08,23,10,10,19.80
2006,08,23,10,11,19.80
2006,08,23,10,12,19.80
2006,08,23,10,13,19.80
2006,08,23,10,14,19.60
2006,08,23,10,15,19.60
2006,08,23,10,16,19.50
2006,08,23,10,17,19.50
2006,08,23,10,18,19.50
2006,08,23,10,19,19.50
2006,08,23,10,20,19.60
2006,08,23,10,21,19.60
2006,08,23,10,22,19.70
2006,08,23,10,23,19.80
2006,08,23,10,24,19.80
2006,08,23,10,25,19.90
2006,08,23,10,26,19.90
2006,08,23,10,27,19.90
2006,08,23,10,28,19.90
2006,08,23,10,29,19.90
2006,08,23,10,30,19.80
2006,08,23,10,31,19.70
2006,08,23,10,32,19.50
2006,08,23,10,33,19.40
2006,08,23,10,34,19.30
2006,08,23,10,35,19.10
2006,08,23,10,36,19.10
2006,08,23,10,37,19.10
2006,08,23,10,38,18.90
2006,08,23,10,39,18.90
2006,08,23,10,40,18.90
2006,08,23,10,41,18.90
2006,08,23,10,42,18.90
2006,08,23,10,43,18.90
2006,08,23,10,44,18.90
2006,08,23,10,45,18.90
2006,08,23,10,46,18.90
2006,08,23,10,47,18.80
2006,08,23,10,48,18.80
2006,08,23,10,49,18.60
2006,08,23,10,50,18.50
2006,08,23,10,51,18.40
2006,08,23,10,52,18.20
2006,08,23,10,53,18.20
2006,08,23,10,54,18.20
2006,08,23,10,55,18.10
2006,08,23,10,56,18.10
2006,08,23,10,57,18.10
2006,08,23,10,58,18.20
2006,08,23,10,59,18.20
2006,08,23,11,00,18.20
2006,08,23,11,01,18.20
2006,08,23,11,02,18.30
2006,08,23,11,03,18.40
2006,08,23,11,04,18.50
2006,08,23,11,05,18.60
2006,08,23,11,06,18.80
2006,08,23,11,07,18.90
2006,08,23,11,08,19.00
2006,08,23,11,09,19.20
2006,08,23,11,10,19.30
2006,08,23,11,11,19.30
2006,08,23,11,12,19.40
2006,08,23,11,13,19.40
2006,08,23,11,14,19.50
2006,08,23,11,15,19.50
2006,08,23,11,16,19.60
2006,08,23,11,17,19.60
2006,08,23,11,18,19.60
2006,08,23,11,19,19.60
2006,08,23,11,20,19.50
2006,08,23,11,21,19.50
2006,08,23,11,22,19.40
2006,08,23,11,23,19.40
2006,08,23,11,24,19.40
2006,08,23,11,25,19.20
2006,08,23,11,26,19.10
2006,08,23,11,27,19.10
2006,08,23,11,28,19.10
2006,08,23,11,29,18.90
2006,08,23,11,30,18.90
2006,08,23,11,31,19.00
2006,08,23,11,32,19.10
2006,08,23,11,33,19.10
2006,08,23,11,34,19.00
2006,08,23,11,35,18.90
2006,08,23,11,36,19.00
2006,08,23,11,37,19.10
2006,08,23,11,38,19.20
2006,08,23,11,39,19.30
2006,08,23,11,40,19.30
2006,08,23,11,41,19.30
2006,08,23,11,42,19.30
2006,08,23,11,43,19.20
2006,08,23,11,44,19.20
2006,08,23,11,45,19.20
2006,08,23,11,46,19.30
2006,08,23,11,47,19.30
2006,08,23,11,48,19.30
2006,08,23,11,49,19.30
2006,08,23,11,50,19.30
2006,08,23,11,51,19.10
2006,08,23,11,52,19.20
2006,08,23,11,53,19.30
2006,08,23,11,54,19.40
2006,08,23,11,55,19.40
2006,08,23,11,56,19.40
2006,08,23,11,57,19.40
2006,08,23,11,58,19.40
2006,08,23,11,59,19.30
2006,08,23,12,00,19.30
2006,08,23,12,01,19.40
2006,08,23,12,02,19.40
2006,08,23,12,03,19.40
2006,08,23,12,04,19.40
2006,08,23,12,05,19.40
2006,08,23,12,06,19.50
2006,08,23,12,07,19.60
2006,08,23,12,08,19.70
2006,08,23,12,09,19.70
2006,08,23,12,10,19.80
2006,08,23,12,11,19.80
2006,08,23,12,12,19.70
2006,08,23,12,13,19.60
2006,08,23,12,14,19.60
2006,08,23,12,15,19.60
2006,08,23,12,16,19.50
2006,08,23,12,17,19.50
2006,08,23,12,18,19.50
2006,08,23,12,19,19.50
2006,08,23,12,20,19.60
2006,08,23,12,21,19.70
2006,08,23,12,22,19.90
2006,08,23,12,23,19.90
2006,08,23,12,24,19.90
2006,08,23,12,25,19.80
2006,08,23,12,26,19.90
2006,08,23,12,27,19.90
2006,08,23,12,28,19.90
2006,08,23,12,29,20.00
2006,08,23,12,30,20.20
2006,08,23,12,31,20.20
2006,08,23,12,32,20.20
2006,08,23,12,33,20.30
2006,08,23,12,34,20.40
2006,08,23,12,35,20.50
2006,08,23,12,36,20.60
2006,08,23,12,37,20.70
2006,08,23,12,38,20.80
2006,08,23,12,39,20.90
2006,08,23,12,40,21.00
2006,08,23,12,41,20.90
2006,08,23,12,42,20.90
2006,08,23,12,43,20.80
2006,08,23,12,44,20.70
2006,08,23,12,45,20.60
2006,08,23,12,46,20.50
2006,08,23,12,47,20.30
2006,08,23,12,48,20.30
2006,08,23,12,49,20.40
2006,08,23,12,50,20.50
2006,08,23,12,51,20.60
2006,08,23,12,52,20.60
2006,08,23,12,53,20.80
2006,08,23,12,54,20.90
2006,08,23,12,55,21.00
2006,08,23,12,56,21.00
2006,08,23,12,57,21.00
2006,08,23,12,58,20.90
2006,08,23,12,59,20.90
2006,08,23,13,00,20.80
2006,08,23,13,01,20.70
2006,08,23,13,02,20.50
2006,08,23,13,03,20.40
2006,08,23,13,04,20.40
2006,08,23,13,05,20.40
2006,08,23,13,06,20.40
2006,08,23,13,07,20.40
2006,08,23,13,08,20.40
2006,08,23,13,09,20.50
2006,08,23,13,10,20.40
2006,08,23,13,11,20.50
2006,08,23,13,12,20.50
2006,08,23,13,13,20.60
2006,08,23,13,14,20.60
2006,08,23,13,15,20.70
2006,08,23,13,16,20.80
2006,08,23,13,17,20.90
2006,08,23,13,18,21.00
2006,08,23,13,19,21.10
2006,08,23,13,20,21.20
2006,08,23,13,21,21.20
2006,08,23,13,22,21.10
2006,08,23,13,23,21.20
2006,08,23,13,24,21.20
2006,08,23,13,25,21.30
2006,08,23,13,26,21.30
2006,08,23,13,27,21.30
2006,08,23,13,28,21.30
2006,08,23,13,29,21.40
2006,08,23,13,30,21.40
2006,08,23,13,31,21.40
2006,08,23,13,32,21.10
2006,08,23,13,33,20.70
2006,08,23,13,34,20.40
2006,08,23,13,35,20.30
2006,08,23,13,36,20.20
2006,08,23,13,37,20.20
2006,08,23,13,38,20.20
2006,08,23,13,39,20.20
2006,08,23,13,40,20.40
2006,08,23,13,41,20.40
2006,08,23,13,42,20.40
2006,08,23,13,43,20.50
2006,08,23,13,44,20.40
2006,08,23,13,45,20.40
2006,08,23,13,46,20.40
2006,08,23,13,47,20.40
2006,08,23,13,48,20.40
2006,08,23,13,49,20.40
2006,08,23,13,50,20.30
2006,08,23,13,51,20.20
2006,08,23,13,52,20.20
2006,08,23,13,53,20.10
2006,08,23,13,54,20.10
2006,08,23,13,55,20.20
2006,08,23,13,56,20.30
2006,08,23,13,57,20.50
2006,08,23,13,58,20.60
2006,08,23,13,59,20.80
2006,08,23,14,00,20.90
2006,08,23,14,01,21.10
2006,08,23,14,02,21.20
2006,08,23,14,03,21.20
2006,08,23,14,04,21.10
2006,08,23,14,05,21.10
2006,08,23,14,06,21.10
2006,08,23,14,07,21.10
2006,08,23,14,08,21.00
2006,08,23,14,09,21.00
2006,08,23,14,10,21.00
2006,08,23,14,11,21.00
2006,08,23,14,12,21.10
2006,08,23,14,13,21.10
2006,08,23,14,14,21.10
2006,08,23,14,15,21.10
2006,08,23,14,16,21.00
2006,08,23,14,17,20.90
2006,08,23,14,18,20.90
2006,08,23,14,19,20.80
2006,08,23,14,20,20.80
2006,08,23,14,21,20.60
2006,08,23,14,22,20.60
2006,08,23,14,23,20.70
2006,08,23,14,24,20.70
2006,08,23,14,25,20.70
2006,08,23,14,26,20.70
2006,08,23,14,27,20.80
2006,08,23,14,28,20.80
2006,08,23,14,29,20.70
2006,08,23,14,30,20.70
2006,08,23,14,31,20.70
2006,08,23,14,32,20.70
2006,08,23,14,33,20.70
2006,08,23,14,34,20.70
2006,08,23,14,35,20.60
2006,08,23,14,36,20.50
2006,08,23,14,37,20.50
2006,08,23,14,38,20.40
2006,08,23,14,39,20.30
2006,08,23,14,40,20.20
2006,08,23,14,41,20.20
2006,08,23,14,42,19.90
2006,08,23,14,43,19.90
2006,08,23,14,44,19.80
2006,08,23,14,45,19.80
2006,08,23,14,46,19.80
2006,08,23,14,47,19.90
2006,08,23,14,48,19.90
2006,08,23,14,49,19.90
2006,08,23,14,50,19.90
2006,08,23,14,51,19.90
2006,08,23,14,52,19.90
2006,08,23,14,53,19.90
2006,08,23,14,54,19.90
2006,08,23,14,55,19.90
2006,08,23,14,56,19.90
2006,08,23,14,57,19.90
2006,08,23,14,58,20.00
2006,08,23,14,59,20.10
2006,08,23,15,00,20.10
2006,08,23,15,01,20.10
2006,08,23,15,02,20.10
2006,08,23,15,03,20.10
2006,08,23,15,04,20.10
2006,08,23,15,05,20.10
2006,08,23,15,06,20.10
2006,08,23,15,07,20.00
2006,08,23,15,08,20.00
2006,08,23,15,09,20.10
2006,08,23,15,10,20.10
2006,08,23,15,11,20.10
2006,08,23,15,12,20.20
2006,08,23,15,13,20.20
2006,08,23,15,14,20.20
2006,08,23,15,15,20.20
2006,08,23,15,16,20.20
2006,08,23,15,17,20.20
2006,08,23,15,18,20.20
2006,08,23,15,19,20.20
2006,08,23,15,20,20.20
2006,08,23,15,21,20.20
2006,08,23,15,22,20.30
2006,08,23,15,23,20.30
2006,08,23,15,24,20.40
2006,08,23,15,25,20.40
2006,08,23,15,26,20.50
2006,08,23,15,27,20.50
2006,08,23,15,28,20.50
2006,08,23,15,29,20.60
2006,08,23,15,30,20.70
2006,08,23,15,31,20.70
2006,08,23,15,32,20.80
2006,08,23,15,33,20.80
2006,08,23,15,34,20.90
2006,08,23,15,35,20.90
2006,08,23,15,36,20.90
2006,08,23,15,37,20.90
2006,08,23,15,38,20.90
2006,08,23,15,39,20.90
2006,08,23,15,40,20.80
2006,08,23,15,41,20.80
2006,08,23,15,42,20.70
2006,08,23,15,43,20.70
2006,08,23,15,44,20.70
2006,08,23,15,45,20.70
2006,08,23,15,46,20.80
2006,08,23,15,47,20.80
2006,08,23,15,48,20.80
2006,08,23,15,49,20.70
2006,08,23,15,50,20.70
2006,08,23,15,51,20.70
2006,08,23,15,52,20.70
2006,08,23,15,53,20.60
2006,08,23,15,54,20.50
2006,08,23,15,55,20.40
2006,08,23,15,56,20.40
2006,08,23,15,57,20.40
2006,08,23,15,58,20.50
2006,08,23,15,59,20.60
2006,08,23,16,00,20.60
2006,08,23,16,01,20.50
2006,08,23,16,02,20.50
2006,08,23,16,03,20.50
2006,08,23,16,04,20.50
2006,08,23,16,05,20.50
2006,08,23,16,06,20.30
2006,08,23,16,07,20.30
2006,08,23,16,08,20.20
2006,08,23,16,09,20.20
2006,08,23,16,10,20.20
2006,08,23,16,11,20.10
2006,08,23,16,12,19.90
2006,08,23,16,13,19.90
2006,08,23,16,14,20.00
2006,08,23,16,15,20.00
2006,08,23,16,16,19.90
2006,08,23,16,17,20.00
2006,08,23,16,18,20.10
2006,08,23,16,19,20.20
2006,08,23,16,20,20.20
2006,08,23,16,21,20.20
2006,08,23,16,22,20.20
2006,08,23,16,23,20.20
2006,08,23,16,24,20.20
2006,08,23,16,25,20.20
2006,08,23,16,26,20.20
2006,08,23,16,27,20.20
2006,08,23,16,28,20.20
2006,08,23,16,29,20.20
2006,08,23,16,30,20.20
2006,08,23,16,31,20.10
2006,08,23,16,32,20.10
2006,08,23,16,33,20.10
2006,08,23,16,34,20.20
2006,08,23,16,35,20.20
2006,08,23,16,36,20.30
2006,08,23,16,37,20.30
2006,08,23,16,38,20.40
2006,08,23,16,39,20.50
2006,08,23,16,40,20.50
2006,08,23,16,41,20.60
2006,08,23,16,42,20.70
2006,08,23,16,43,20.70
2006,08,23,16,44,20.60
2006,08,23,16,45,20.40
2006,08,23,16,46,20.30
2006,08,23,16,47,20.20
2006,08,23,16,48,20.00
2006,08,23,16,49,19.90
2006,08,23,16,50,19.90
2006,08,23,16,51,19.90
2006,08,23,16,52,19.90
2006,08,23,16,53,19.80
2006,08,23,16,54,19.80
2006,08,23,16,55,19.80
2006,08,23,16,56,19.80
2006,08,23,16,57,19.70
2006,08,23,16,58,19.60
2006,08,23,16,59,19.50
2006,08,23,17,00,19.40
2006,08,23,17,01,19.40
2006,08,23,17,02,19.40
2006,08,23,17,03,19.30
2006,08,23,17,04,19.30
2006,08,23,17,05,19.30
2006,08,23,17,06,19.20
2006,08,23,17,07,19.20
2006,08,23,17,08,19.10
2006,08,23,17,09,19.10
2006,08,23,17,10,19.10
2006,08,23,17,11,19.10
2006,08,23,17,12,19.10
2006,08,23,17,13,19.00
2006,08,23,17,14,18.90
2006,08,23,17,15,18.90
2006,08,23,17,16,19.00
2006,08,23,17,17,19.10
2006,08,23,17,18,19.10
2006,08,23,17,19,19.10